Rt 113 & Rt 16, Ellendale DE USA current weather conditions

sailwx.info

Wind from 180 at 12 knots gusting 18

Air temperature 13.9° C
Dewpoint 12.8° C

Last reported at 2019-Dec-09 22:55 UTC.
Time now 2019-Dec-09 23:33 UTC

Location: N 38°48' W 075°26'.
View on Google Maps.

See reports from other nearby stations

  
Tides and Currents Weather Stations Pressure Air Temp Water Temp Dewpoint Dewpoint Depression Visibility Wind Speed Wind Dir Waves Ship Positions
date/time (UTC)wind fromknots sea level pressurealtimeterstation pressurevisibilityair tempwater tempwave heightnotes
2019-Dec-09 22:55 180 12 gusting 18 13.9
2019-Dec-09 22:50 180 11 gusting 15 13.9
2019-Dec-09 22:45 180 10 gusting 15 13.8
2019-Dec-09 22:40 180 9 gusting 13 13.7
2019-Dec-09 22:35 180 10 gusting 13 13.4
2019-Dec-09 22:30 180 7 gusting 10 13.2
2019-Dec-09 22:25 010 7 gusting 8 12.9
2019-Dec-09 22:20 010 5 gusting 8 12.8
2019-Dec-09 22:15 010 6 gusting 8 12.8
2019-Dec-09 22:10 010 5 gusting 8 12.8
2019-Dec-09 22:05 010 6 gusting 7 12.7
2019-Dec-09 22:00 010 5 gusting 6 12.7
2019-Dec-09 21:55 010 2 gusting 6 12.6
2019-Dec-09 21:50 010 4 gusting 7 12.7
2019-Dec-09 21:45 010 5 gusting 7 12.7
2019-Dec-09 21:40 010 6 gusting 9 12.7
2019-Dec-09 21:35 010 5 gusting 9 12.7
2019-Dec-09 21:30 010 6 gusting 9 12.6
2019-Dec-09 21:25 010 5 gusting 8 12.6
2019-Dec-09 21:20 010 6 gusting 8 12.6
2019-Dec-09 21:15 010 6 gusting 8 12.6
2019-Dec-09 21:10 010 5 gusting 7 12.3
2019-Dec-09 21:05 010 3 gusting 6 12.3
2019-Dec-09 21:00 010 4 gusting 6 12.3
2019-Dec-09 20:55 010 3 gusting 7 12.3
2019-Dec-09 20:50 010 4 gusting 7 12.2
2019-Dec-09 20:45 010 5 gusting 8 12.2
2019-Dec-09 20:40 010 6 gusting 9 12.2
2019-Dec-09 20:35 010 7 gusting 10 12.2
2019-Dec-09 20:30 010 8 gusting 11 12.2
2019-Dec-09 20:25 010 6 gusting 11 12.1
2019-Dec-09 20:20 010 6 gusting 9 12.1
2019-Dec-09 20:15 010 6 gusting 9 11.9
2019-Dec-09 20:10 010 6 gusting 9 11.9
2019-Dec-09 20:05 010 6 gusting 9 11.9
2019-Dec-09 20:00 010 6 gusting 9 11.9
2019-Dec-09 19:55 010 5 gusting 9 11.8
2019-Dec-09 19:50 010 5 gusting 7 11.8
2019-Dec-09 19:45 010 4 gusting 6 11.8
2019-Dec-09 19:40 010 4 gusting 8 11.8
2019-Dec-09 19:35 010 6 gusting 8 11.7
2019-Dec-09 19:30 010 5 gusting 8 11.7
2019-Dec-09 19:25 010 5 gusting 7 11.7
2019-Dec-09 19:20 010 5 gusting 8 11.7
2019-Dec-09 19:15 010 6 gusting 8 11.7
2019-Dec-09 19:10 010 5 gusting 6 11.6
2019-Dec-09 19:05 010 5 gusting 6 11.6
2019-Dec-09 19:00 010 3 gusting 5 11.6
2019-Dec-09 18:55 010 4 gusting 6 11.6
2019-Dec-09 18:50 010 3 gusting 6 11.6
2019-Dec-09 18:45 010 3 gusting 7 11.6
2019-Dec-09 18:40 010 4 gusting 7 11.6
2019-Dec-09 18:35 010 5 gusting 7 11.6
2019-Dec-09 18:30 010 5 gusting 10 11.6
2019-Dec-09 18:25 010 6 gusting 10 11.4
2019-Dec-09 18:20 010 5 gusting 9 11.6
2019-Dec-09 18:15 010 7 gusting 9 11.6
2019-Dec-09 18:10 010 5 gusting 8 11.7
2019-Dec-09 18:05 010 5 gusting 10 11.6
2019-Dec-09 18:00 010 6 gusting 12 11.6
2019-Dec-09 17:55 010 9 gusting 12 11.4
2019-Dec-09 17:50 010 7 gusting 12 11.4
2019-Dec-09 17:45 010 8 gusting 12 11.4
2019-Dec-09 17:40 010 9 gusting 12 11.4
2019-Dec-09 17:35 010 6 gusting 11 11.6
2019-Dec-09 17:30 010 6 gusting 11 11.7
2019-Dec-09 17:25 010 7 gusting 10 11.6
2019-Dec-09 17:20 010 6 gusting 9 11.4
2019-Dec-09 17:15 010 7 gusting 11 11.3
2019-Dec-09 17:10 010 8 gusting 10 11.3
2019-Dec-09 17:05 010 8 gusting 12 11.2
2019-Dec-09 17:00 010 8 gusting 12 11.2
2019-Dec-09 16:55 010 7 gusting 12 11.3
2019-Dec-09 16:50 010 9 gusting 12 11.2
2019-Dec-09 16:45 010 8 gusting 10 11.2
2019-Dec-09 16:40 010 5 gusting 10 11.2
2019-Dec-09 16:35 010 6 gusting 11 11.2
2019-Dec-09 16:30 010 9 gusting 11 11.1
2019-Dec-09 16:25 010 9 gusting 14 11.1
2019-Dec-09 16:20 010 9 gusting 16 10.9
2019-Dec-09 16:15 010 9 gusting 16 10.9
2019-Dec-09 16:10 010 10 gusting 12 10.9
2019-Dec-09 16:05 010 10 gusting 14 10.9
2019-Dec-09 16:00 010 11 gusting 14 10.9
2019-Dec-09 15:55 010 9 gusting 12 10.9
2019-Dec-09 15:50 010 7 gusting 10 10.9
2019-Dec-09 15:45 010 8 gusting 11 10.8
2019-Dec-09 15:40 010 9 gusting 11 10.8
2019-Dec-09 15:35 010 7 gusting 10 10.7
2019-Dec-09 15:30 010 7 gusting 10 10.7
2019-Dec-09 15:25 010 7 gusting 9 10.6
2019-Dec-09 15:20 180 6 gusting 12 10.3
2019-Dec-09 15:15 180 7 gusting 12 10.3
2019-Dec-09 15:10 180 7 gusting 9 10.3
2019-Dec-09 15:05 180 7 gusting 9 10.2
2019-Dec-09 15:00 180 7 gusting 9 10.2
2019-Dec-09 14:55 180 7 gusting 9 10.1
2019-Dec-09 14:50 180 6 gusting 9 10.1
2019-Dec-09 14:45 180 7 gusting 8 9.8
2019-Dec-09 14:40 180 6 gusting 8 9.8
2019-Dec-09 14:35 180 7 gusting 10 9.6
2019-Dec-09 14:30 010 6 gusting 10 9.6
2019-Dec-09 14:25 180 6 gusting 10 9.6
2019-Dec-09 14:20 180 6 gusting 8 9.6
2019-Dec-09 14:15 180 7 gusting 10 9.5
2019-Dec-09 14:10 180 8 gusting 10 9.6
2019-Dec-09 14:05 180 7 gusting 10 9.6
2019-Dec-09 14:00 180 6 gusting 11 9.6
2019-Dec-09 13:55 180 7 gusting 11 9.6
2019-Dec-09 13:50 180 6 gusting 13 9.7
2019-Dec-09 13:45 180 10 gusting 13 9.8
2019-Dec-09 13:40 180 7 gusting 11 10.2
2019-Dec-09 13:35 180 7 gusting 10 10.3
2019-Dec-09 13:30 180 8 gusting 12 10.4
2019-Dec-09 13:25 180 7 gusting 11 10.4
2019-Dec-09 13:20 180 6 gusting 11 10.3
2019-Dec-09 13:15 180 8 gusting 11 10.3
2019-Dec-09 13:10 180 8 gusting 11 10.2
2019-Dec-09 13:05 180 6 gusting 10 10.2
2019-Dec-09 13:00 180 6 gusting 10 10.2
2019-Dec-09 12:55 180 6 gusting 9 10.2
2019-Dec-09 12:50 010 6 gusting 8 9.7
2019-Dec-09 12:45 010 5 gusting 7 9.2
2019-Dec-09 12:40 010 2 gusting 4 8.6
2019-Dec-09 12:35 010 2 gusting 4 8.3
2019-Dec-09 12:30 010 2 gusting 4 8.2
2019-Dec-09 12:25 010 2 gusting 2 8.1
2019-Dec-09 12:20 010 1 gusting 2 8.1
2019-Dec-09 12:15 010 1 gusting 2 8.1
2019-Dec-09 12:10 010 1 gusting 2 8.1
2019-Dec-09 12:05 010 0 gusting 4 8.2
2019-Dec-09 12:00 010 2 gusting 4 8.2
2019-Dec-09 11:55 010 2 gusting 5 8.2
2019-Dec-09 11:50 010 2 gusting 5 8.2
2019-Dec-09 11:45 010 3 gusting 5 8.1
2019-Dec-09 11:40 010 3 gusting 6 8.1
2019-Dec-09 11:35 010 4 gusting 6 8.0
2019-Dec-09 11:30 010 4 gusting 5 7.7
2019-Dec-09 11:25 010 3 gusting 4 7.6
2019-Dec-09 11:20 010 3 gusting 4 7.6
2019-Dec-09 11:15 010 3 gusting 4 7.3
2019-Dec-09 11:10 010 2 gusting 2 7.3
2019-Dec-09 11:05 010 1 gusting 2 7.2
2019-Dec-09 11:00 010 1 gusting 2 7.2
2019-Dec-09 10:55 010 1 gusting 1 7.2
2019-Dec-09 10:50 010 1 gusting 1 7.1
2019-Dec-09 10:45 010 0 gusting 1 7.1
2019-Dec-09 10:40 010 7.1
2019-Dec-09 10:35 010 0 gusting 0 7.0
2019-Dec-09 10:30 010 7.0
2019-Dec-09 10:25 010 0 gusting 1 7.0
2019-Dec-09 10:20 010 7.0
2019-Dec-09 10:15 010 7.0
2019-Dec-09 10:10 010 0 gusting 1 7.0
2019-Dec-09 10:05 010 0 gusting 2 6.8
2019-Dec-09 10:00 010 0 gusting 2 6.8
2019-Dec-09 09:55 010 1 gusting 2 6.8
2019-Dec-09 09:50 010 1 gusting 4 6.8
2019-Dec-09 09:45 010 2 gusting 4 6.8
2019-Dec-09 09:40 010 3 gusting 4 6.8
2019-Dec-09 09:35 010 2 gusting 6 6.8
2019-Dec-09 09:30 010 2 gusting 6 6.8
2019-Dec-09 09:25 010 4 gusting 6 6.8
2019-Dec-09 09:20 010 1 gusting 6 6.8
2019-Dec-09 09:15 010 2 gusting 6 7.0
2019-Dec-09 09:10 010 2 gusting 4 6.7
2019-Dec-09 09:05 010 2 gusting 4 6.7
2019-Dec-09 09:00 010 4 gusting 5 6.7
2019-Dec-09 08:55 010 3 gusting 5 6.7
2019-Dec-09 08:50 010 2 gusting 5 6.6
2019-Dec-09 08:45 6.6
2019-Dec-09 08:40 6.6
2019-Dec-09 08:35 6.6
2019-Dec-09 08:30 6.6
2019-Dec-09 08:25 6.6
2019-Dec-09 08:20 6.5
2019-Dec-09 08:15 6.5
2019-Dec-09 08:10 6.3
2019-Dec-09 08:05 6.5
2019-Dec-09 08:00 6.3
2019-Dec-09 07:55 6.2
2019-Dec-09 07:50 6.2
2019-Dec-09 07:45 6.2
2019-Dec-09 07:40 6.2
2019-Dec-09 07:35 6.2
2019-Dec-09 07:30 6.2
2019-Dec-09 07:25 6.1
2019-Dec-09 07:20 6.1
2019-Dec-09 07:15 6.1
2019-Dec-09 07:10 6.1
2019-Dec-09 07:05 6.1
2019-Dec-09 07:00 6.1
2019-Dec-09 06:55 6.1
2019-Dec-09 06:50 6.1
2019-Dec-09 06:45 6.0
2019-Dec-09 06:40 6.0
2019-Dec-09 06:35 5.8
2019-Dec-09 06:30 5.8
2019-Dec-09 06:25 5.8
2019-Dec-09 06:20 5.7
2019-Dec-09 06:15 5.7
2019-Dec-09 06:10 5.7
2019-Dec-09 06:05 5.6
2019-Dec-09 06:00 5.6
2019-Dec-09 05:55 5.6
2019-Dec-09 05:50 5.6
2019-Dec-09 05:45 5.7
2019-Dec-09 05:40 5.7
2019-Dec-09 05:35 5.7
2019-Dec-09 05:30 5.6
2019-Dec-09 05:25 5.7
2019-Dec-09 05:20 5.7
2019-Dec-09 05:15 5.8
2019-Dec-09 05:10 5.8
2019-Dec-09 05:05 5.8
2019-Dec-09 05:00 5.8
2019-Dec-09 04:55 5.8
2019-Dec-09 04:50 5.7
2019-Dec-09 04:45 5.7
2019-Dec-09 04:40 5.7
2019-Dec-09 04:35 5.6
2019-Dec-09 04:30 5.6
2019-Dec-09 04:25 5.5
2019-Dec-09 04:20 5.5
2019-Dec-09 04:15 5.5
2019-Dec-09 04:10 5.5
2019-Dec-09 04:05 5.5
2019-Dec-09 04:00 5.6
2019-Dec-09 03:55 5.6
2019-Dec-09 03:50 5.6
2019-Dec-09 03:45 5.6
2019-Dec-09 03:40 5.5
2019-Dec-09 03:35 5.5
2019-Dec-09 03:30 5.2
2019-Dec-09 03:25 5.2
2019-Dec-09 03:20 5.1
2019-Dec-09 03:15 5.1
2019-Dec-09 03:10 5.1
2019-Dec-09 03:05 5.1
2019-Dec-09 03:00 5.1
2019-Dec-09 02:55 5.0
2019-Dec-09 02:50 5.0
2019-Dec-09 02:45 4.8
2019-Dec-09 02:40 4.8
2019-Dec-09 02:35 4.7
2019-Dec-09 02:30 4.6
2019-Dec-09 02:25 4.5
2019-Dec-09 02:20 4.2
2019-Dec-09 02:15 4.1
2019-Dec-09 02:10 4.1
2019-Dec-09 02:05 4.1
2019-Dec-09 02:00 4.0
2019-Dec-09 01:55 3.9
2019-Dec-09 01:50 3.9
2019-Dec-09 01:45 3.6
2019-Dec-09 01:40 3.6
2019-Dec-09 01:35 3.6
2019-Dec-09 01:30 3.5
2019-Dec-09 01:25 3.4
2019-Dec-09 01:20 3.2
2019-Dec-09 01:15 3.2
2019-Dec-09 01:10 3.1
2019-Dec-09 01:05 3.0
2019-Dec-09 01:00 2.7
2019-Dec-09 00:55 2.7
2019-Dec-09 00:50 3.0
2019-Dec-09 00:45 2.9
2019-Dec-09 00:40 2.7
2019-Dec-09 00:35 2.7
2019-Dec-09 00:30 2.7
2019-Dec-09 00:25 2.7
2019-Dec-09 00:20 075 0 gusting 2 2.7
2019-Dec-09 00:15 2.7
2019-Dec-09 00:10 2.5
2019-Dec-09 00:05 2.4
2019-Dec-09 00:00 2.5
2019-Dec-08 23:55 2.4
2019-Dec-08 23:50 2.4
2019-Dec-08 23:45 2.4
2019-Dec-08 23:40 2.6
2019-Dec-08 23:35 2.7
2019-Dec-08 23:30 3.1
2019-Dec-08 23:25 3.1
2019-Dec-08 23:20 3.2
2019-Dec-08 23:15 3.4
2019-Dec-08 23:10 3.4
2019-Dec-08 23:05 3.6
2019-Dec-08 23:00 4.0
2019-Dec-08 22:55 4.5
2019-Dec-08 22:50 4.6
2019-Dec-08 22:45 4.7
2019-Dec-08 22:40 5.1
2019-Dec-08 22:35 5.6
2019-Dec-08 22:30 5.8
2019-Dec-08 22:25 6.1
2019-Dec-08 22:20 6.3
2019-Dec-08 22:15 6.6
2019-Dec-08 22:10 6.6
2019-Dec-08 22:05 6.8
2019-Dec-08 22:00 6.8
2019-Dec-08 21:55 7.0
2019-Dec-08 21:50 7.1
2019-Dec-08 21:45 7.2
2019-Dec-08 21:40 7.6
2019-Dec-08 21:35 7.6
2019-Dec-08 21:30 8.0
2019-Dec-08 21:25 8.1
2019-Dec-08 21:20 8.2
2019-Dec-08 21:15 8.5
2019-Dec-08 21:10 8.6
2019-Dec-08 21:05 8.7
2019-Dec-08 21:00 8.8
2019-Dec-08 20:55 9.1
2019-Dec-08 20:50 9.1
2019-Dec-08 20:45 9.3
2019-Dec-08 20:40 9.3
2019-Dec-08 20:35 9.5
2019-Dec-08 20:30 9.3
2019-Dec-08 20:25 9.2
2019-Dec-08 20:20 9.3
2019-Dec-08 20:15 9.3
2019-Dec-08 20:10 9.3
2019-Dec-08 20:05 9.2
2019-Dec-08 20:00 9.3
2019-Dec-08 19:55 9.5
2019-Dec-08 19:50 9.5
2019-Dec-08 19:45 9.3
2019-Dec-08 19:40 9.3
2019-Dec-08 19:35 9.6
2019-Dec-08 19:30 9.6
2019-Dec-08 19:25 9.6
2019-Dec-08 19:20 9.5
2019-Dec-08 19:15 9.6
2019-Dec-08 19:10 10.1
2019-Dec-08 19:05 10.1
2019-Dec-08 19:00 9.7
2019-Dec-08 18:55 9.8
2019-Dec-08 18:50 9.8
2019-Dec-08 18:45 9.6
2019-Dec-08 18:40 9.6
2019-Dec-08 18:35 9.5
2019-Dec-08 18:30 9.6
2019-Dec-08 18:25 9.2
2019-Dec-08 18:20 9.0
2019-Dec-08 18:15 9.1
2019-Dec-08 18:10 9.1
2019-Dec-08 18:05 9.1
2019-Dec-08 18:00 9.0
2019-Dec-08 17:55 8.8
2019-Dec-08 17:50 8.8
2019-Dec-08 17:45 8.8
2019-Dec-08 17:40 8.8
2019-Dec-08 17:35 8.2
2019-Dec-08 17:30 8.5
2019-Dec-08 17:25 8.5
2019-Dec-08 17:20 8.3
2019-Dec-08 17:15 8.2
2019-Dec-08 17:10 8.2
2019-Dec-08 17:05 8.2
2019-Dec-08 17:00 8.5
2019-Dec-08 16:55 8.1
2019-Dec-08 16:50 8.2
2019-Dec-08 16:45 8.2
2019-Dec-08 16:40 8.1
2019-Dec-08 16:35 8.2
2019-Dec-08 16:30 7.7
2019-Dec-08 16:25 7.2
2019-Dec-08 16:20 7.3
2019-Dec-08 16:15 7.1
2019-Dec-08 16:10 7.2
2019-Dec-08 16:05 6.7
2019-Dec-08 16:00 6.7
2019-Dec-08 15:55 6.6
2019-Dec-08 15:50 6.6
2019-Dec-08 15:45 6.6
2019-Dec-08 15:40 6.3
2019-Dec-08 15:35 6.5
2019-Dec-08 15:30 6.3
2019-Dec-08 15:25 6.5
2019-Dec-08 15:20 6.2
2019-Dec-08 15:15 6.0
2019-Dec-08 15:10 5.8
2019-Dec-08 15:05 5.7
2019-Dec-08 15:00 5.6
2019-Dec-08 14:55 5.5
2019-Dec-08 14:50 5.3
2019-Dec-08 14:45 5.1
2019-Dec-08 14:40 4.8
2019-Dec-08 14:35 4.6
2019-Dec-08 14:30 4.2
2019-Dec-08 14:25 4.1
2019-Dec-08 14:20 3.6
2019-Dec-08 14:15 3.1
2019-Dec-08 14:10 2.7
2019-Dec-08 14:05 2.1
2019-Dec-08 14:00 1.6
2019-Dec-08 13:55 1.2
2019-Dec-08 13:50 0.7
2019-Dec-08 13:45 0.6
2019-Dec-08 13:40 -0.0
2019-Dec-08 13:35 -0.5
2019-Dec-08 13:30 -1.0
2019-Dec-08 13:25 -1.8
2019-Dec-08 13:20 -2.4
2019-Dec-08 13:15 -2.9
2019-Dec-08 13:10 -3.0
2019-Dec-08 13:05 -3.6
2019-Dec-08 13:00 075 -3.9
2019-Dec-08 12:55 075 -4.3
2019-Dec-08 12:50 075 -4.9
2019-Dec-08 12:45 075 -5.4
2019-Dec-08 12:40 075 -5.7
2019-Dec-08 12:35 075 -5.7
2019-Dec-08 12:30 075 -5.8
2019-Dec-08 12:25 075 -5.9
2019-Dec-08 12:20 075 -5.9
2019-Dec-08 12:15 075 -6.0
2019-Dec-08 12:10 075 -6.0
2019-Dec-08 12:05 075 -6.0
2019-Dec-08 12:00 075 -5.9
2019-Dec-08 11:55 075 -5.9
2019-Dec-08 11:50 075 0 gusting 1 -6.0
2019-Dec-08 11:45 075 0 gusting 1 -6.2
2019-Dec-08 11:40 075 -6.0
2019-Dec-08 11:35 075 -6.0
2019-Dec-08 11:30 075 -5.9
2019-Dec-08 11:25 075 -5.9
2019-Dec-08 11:20 075 0 gusting 0 -5.9
2019-Dec-08 11:15 075 -5.9
2019-Dec-08 11:10 075 -5.9
2019-Dec-08 11:05 075 -5.9
2019-Dec-08 11:00 075 -5.9
2019-Dec-08 10:55 075 -6.0
2019-Dec-08 10:50 075 -5.9
2019-Dec-08 10:45 075 -5.8
2019-Dec-08 10:40 075 -5.7
2019-Dec-08 10:35 075 -5.5
2019-Dec-08 10:30 075 -5.7
2019-Dec-08 10:25 075 0 gusting 1 -5.7
2019-Dec-08 10:20 075 1 gusting 1 -5.7
2019-Dec-08 10:15 075 0 gusting 1 -5.7
2019-Dec-08 10:10 075 0 gusting 1 -5.7
2019-Dec-08 10:05 075 -5.7
2019-Dec-08 09:55 075 0 gusting 1 -5.4
2019-Dec-08 09:50 075 1 gusting 1 -5.4
2019-Dec-08 09:45 075 0 gusting 1 -5.5
2019-Dec-08 09:40 075 0 gusting 1 -5.4
2019-Dec-08 09:35 075 0 gusting 1 -5.4
2019-Dec-08 09:30 075 0 gusting 0 -5.7
2019-Dec-08 09:25 075 -5.8
2019-Dec-08 09:20 075 -5.5
2019-Dec-08 09:15 075 -5.4
2019-Dec-08 09:10 075 -5.4
2019-Dec-08 09:05 075 -5.4
2019-Dec-08 09:00 075 -5.4
2019-Dec-08 08:55 075 -5.5
2019-Dec-08 08:50 075 -5.5
2019-Dec-08 08:45 075 1 gusting 1 -5.5
2019-Dec-08 08:40 075 0 gusting 1 -5.8
2019-Dec-08 08:35 075 -5.9
2019-Dec-08 08:30 075 -5.7
2019-Dec-08 08:25 075 -5.7
2019-Dec-08 08:20 075 -5.5
2019-Dec-08 08:15 075 1 gusting 1 -5.5
2019-Dec-08 08:10 075 0 gusting 1 -5.8
2019-Dec-08 08:05 075 -5.7
2019-Dec-08 08:00 075 -5.5
2019-Dec-08 07:55 075 -5.4
2019-Dec-08 07:50 075 -5.4
2019-Dec-08 07:45 075 -5.4
2019-Dec-08 07:40 075 -5.4
2019-Dec-08 07:35 075 -5.5
2019-Dec-08 07:30 075 -5.4
2019-Dec-08 07:25 075 -5.4
2019-Dec-08 07:20 075 -5.4
2019-Dec-08 07:15 075 -5.4
2019-Dec-08 07:10 075 -5.4
2019-Dec-08 07:05 075 -5.4
2019-Dec-08 07:00 075 -5.4
2019-Dec-08 06:55 075 -5.5
2019-Dec-08 06:50 075 -5.5
2019-Dec-08 06:45 075 -5.4
2019-Dec-08 06:40 075 -5.4
2019-Dec-08 06:35 075 -5.3
2019-Dec-08 06:30 075 -5.2
2019-Dec-08 06:25 075 -4.9
2019-Dec-08 06:20 075 0 gusting 1 -4.9
2019-Dec-08 06:15 075 -4.9
2019-Dec-08 06:10 075 -4.8
2019-Dec-08 06:05 075 -4.7
2019-Dec-08 06:00 075 -4.9
2019-Dec-08 05:55 075 -4.9
2019-Dec-08 05:50 075 -4.9
2019-Dec-08 05:45 075 -4.8
2019-Dec-08 05:40 075 -4.7
2019-Dec-08 05:35 075 -4.7
2019-Dec-08 05:30 075 -4.8
2019-Dec-08 05:25 075 -4.8
2019-Dec-08 05:20 075 -4.9
2019-Dec-08 05:15 075 -4.9
2019-Dec-08 05:10 075 -4.8
2019-Dec-08 05:05 075 -4.5
2019-Dec-08 05:00 075 -4.4
2019-Dec-08 04:55 075 -4.4
2019-Dec-08 04:50 075 -4.4
2019-Dec-08 04:45 075 -4.4
2019-Dec-08 04:40 075 -4.4
2019-Dec-08 04:35 075 -4.4
2019-Dec-08 04:30 075 -4.3
2019-Dec-08 04:25 075 -4.3
2019-Dec-08 04:20 075 -4.0
2019-Dec-08 04:15 075 -3.9
2019-Dec-08 04:10 075 -3.9
2019-Dec-08 04:05 075 -3.9
2019-Dec-08 04:00 075 -4.0
2019-Dec-08 03:55 075 -4.0
2019-Dec-08 03:50 075 -4.0
2019-Dec-08 03:45 075 -3.9
2019-Dec-08 03:40 075 -3.9
2019-Dec-08 03:35 075 -3.8
2019-Dec-08 03:30 075 -3.6
2019-Dec-08 03:25 075 -3.6
2019-Dec-08 03:20 075 -3.8
2019-Dec-08 03:15 075 -3.5
2019-Dec-08 03:10 075 -3.5
2019-Dec-08 03:05 075 -3.5
2019-Dec-08 03:00 075 -3.4
2019-Dec-08 02:55 075 -3.4
2019-Dec-08 02:50 075 -3.4
2019-Dec-08 02:45 075 -3.6
2019-Dec-08 02:40 075 -3.6
2019-Dec-08 02:35 075 -3.6
2019-Dec-08 02:30 075 -3.4
2019-Dec-08 02:25 075 -3.4
2019-Dec-08 02:20 075 -3.4
2019-Dec-08 02:15 075 -3.4
2019-Dec-08 02:10 075 -3.3
2019-Dec-08 02:05 075 -3.0
2019-Dec-08 02:00 075 -3.0
2019-Dec-08 01:55 075 -3.0
2019-Dec-08 01:45 075 0 -3.0
2019-Dec-08 01:40 075 -3.0
2019-Dec-08 01:35 075 -3.0
2019-Dec-08 01:30 075 -2.9
2019-Dec-08 01:25 075 -2.9
2019-Dec-08 01:20 075 -2.9
2019-Dec-08 01:15 075 -2.9
2019-Dec-08 01:10 075 -3.0
2019-Dec-08 01:05 075 -2.9
2019-Dec-08 01:00 075 -2.8
2019-Dec-08 00:55 075 -2.5
2019-Dec-08 00:50 075 -2.4
2019-Dec-08 00:45 075 -2.4
2019-Dec-08 00:40 075 -2.4
2019-Dec-08 00:35 075 0 gusting 1 -2.4
2019-Dec-08 00:30 075 -2.1
2019-Dec-08 00:25 075 -1.9
2019-Dec-08 00:20 075 -1.8
2019-Dec-08 00:15 075 -1.8
2019-Dec-08 00:10 075 -1.6
2019-Dec-08 00:05 075 0 gusting 1 -1.5
2019-Dec-08 00:00 075 0 gusting 1 -1.4
2019-Dec-07 23:55 075 1 gusting 1 -1.4
2019-Dec-07 23:50 075 0 gusting 0 -1.4
2019-Dec-07 23:45 075 -1.4
2019-Dec-07 23:40 075 -1.3
2019-Dec-07 23:35 075 -1.1
2019-Dec-07 23:30 075 0 gusting 1 -1.0
2019-Dec-07 23:25 075 0 gusting 1 -0.9
2019-Dec-07 23:20 075 0 gusting 1 -0.5
2019-Dec-07 23:15 075 -0.4
2019-Dec-07 23:10 075 -0.3
2019-Dec-07 23:05 075 0 gusting 1 -0.0
2019-Dec-07 23:00 075 0 gusting 2 0.1